owner,sensor,date,latitude,longitude,vertical_datum,wind_speed,wind_to_direction,wind_speed_of_gust,qcFlag 
DISL,ioos:station:DISL:CATA:1,2017-09-01T00:00:00Z,30.3085,-88.1395,0.0,12.65,232.6,-999.0,'1111122,1111122,1111122' 
DISL,ioos:station:DISL:CATA:1,2017-09-01T00:30:00Z,30.3085,-88.1395,0.0,12.74,241.6,-999.0,'1111122,1111122,1111122' 
DISL,ioos:station:DISL:CATA:1,2017-09-01T01:00:00Z,30.3085,-88.1395,0.0,11.65,238.0,-999.0,'1111122,1111122,1111122' 
DISL,ioos:station:DISL:CATA:1,2017-09-01T01:30:00Z,30.3085,-88.1395,0.0,10.62,242.7,-999.0,'1111122,1111122,1111122' 
DISL,ioos:station:DISL:CATA:1,2017-09-01T02:00:00Z,30.3085,-88.1395,0.0,11.82,240.8,-999.0,'1111122,1111122,1111122' 
DISL,ioos:station:DISL:CATA:1,2017-09-01T02:30:00Z,30.3085,-88.1395,0.0,11.44,242.3,-999.0,'1111122,1111122,1111122' 
DISL,ioos:station:DISL:CATA:1,2017-09-01T03:00:00Z,30.3085,-88.1395,0.0,11.13,246.4,-999.0,'1111122,1111122,1111122' 
DISL,ioos:station:DISL:CATA:1,2017-09-01T03:30:00Z,30.3085,-88.1395,0.0,10.63,250.5,-999.0,'1111122,1111122,1111122' 
DISL,ioos:station:DISL:CATA:1,2017-09-01T04:00:00Z,30.3085,-88.1395,0.0,10.88,248.2,-999.0,'1111122,1111122,1111122' 
DISL,ioos:station:DISL:CATA:1,2017-09-01T04:30:00Z,30.3085,-88.1395,0.0,10.52,250.2,-999.0,'1111122,1111122,1111122' 
DISL,ioos:station:DISL:CATA:1,2017-09-01T05:00:00Z,30.3085,-88.1395,0.0,10.77,251.5,-999.0,'1111122,1111122,1111122' 
DISL,ioos:station:DISL:CATA:1,2017-09-01T05:30:00Z,30.3085,-88.1395,0.0,10.49,252.0,-999.0,'1111122,1111122,1111122' 
DISL,ioos:station:DISL:CATA:1,2017-09-01T06:00:00Z,30.3085,-88.1395,0.0,10.19,254.7,-999.0,'1111122,1111122,1111122' 
DISL,ioos:station:DISL:CATA:1,2017-09-01T06:30:00Z,30.3085,-88.1395,0.0,9.21,253.3,-999.0,'1111122,1111122,1111122' 
DISL,ioos:station:DISL:CATA:1,2017-09-01T07:00:00Z,30.3085,-88.1395,0.0,8.96,259.8,-999.0,'1111122,1111122,1111122' 
DISL,ioos:station:DISL:CATA:1,2017-09-01T07:30:00Z,30.3085,-88.1395,0.0,8.5,264.9,-999.0,'1111122,1111122,1111122' 
DISL,ioos:station:DISL:CATA:1,2017-09-01T08:00:00Z,30.3085,-88.1395,0.0,7.85,255.7,-999.0,'1111122,1111122,1111122' 
DISL,ioos:station:DISL:CATA:1,2017-09-01T08:30:00Z,30.3085,-88.1395,0.0,7.52,251.9,-999.0,'1111122,1111122,1111122' 
DISL,ioos:station:DISL:CATA:1,2017-09-01T09:00:00Z,30.3085,-88.1395,0.0,7.7,246.9,-999.0,'1111122,1111122,1111122' 
DISL,ioos:station:DISL:CATA:1,2017-09-01T09:30:00Z,30.3085,-88.1395,0.0,6.98,265.6,-999.0,'1111122,1111122,1111122' 
DISL,ioos:station:DISL:CATA:1,2017-09-01T10:00:00Z,30.3085,-88.1395,0.0,4.69,281.0,-999.0,'1111122,1111122,1111122' 
DISL,ioos:station:DISL:CATA:1,2017-09-01T10:30:00Z,30.3085,-88.1395,0.0,4.93,293.5,-999.0,'1111122,1111122,1111122' 
DISL,ioos:station:DISL:CATA:1,2017-09-01T11:00:00Z,30.3085,-88.1395,0.0,5.0,292.0,-999.0,'1111122,1111122,1111122' 
DISL,ioos:station:DISL:CATA:1,2017-09-01T11:30:00Z,30.3085,-88.1395,0.0,4.69,294.5,-999.0,'1111122,1111122,1111122' 
DISL,ioos:station:DISL:CATA:1,2017-09-01T12:00:00Z,30.3085,-88.1395,0.0,4.79,287.2,-999.0,'1111122,1111122,1111122' 
DISL,ioos:station:DISL:CATA:1,2017-09-01T12:30:00Z,30.3085,-88.1395,0.0,6.51,293.2,-999.0,'1111122,1111122,1111122' 
DISL,ioos:station:DISL:CATA:1,2017-09-01T13:00:00Z,30.3085,-88.1395,0.0,6.24,301.8,-999.0,'1111122,1111122,1111122' 
DISL,ioos:station:DISL:CATA:1,2017-09-01T13:30:00Z,30.3085,-88.1395,0.0,5.14,300.7,-999.0,'1111122,1111122,1111122' 
DISL,ioos:station:DISL:CATA:1,2017-09-01T14:00:00Z,30.3085,-88.1395,0.0,3.81,295.7,-999.0,'1111122,1111122,1111122' 
DISL,ioos:station:DISL:CATA:1,2017-09-01T14:30:00Z,30.3085,-88.1395,0.0,4.12,290.7,-999.0,'1111122,1111122,1111122' 
DISL,ioos:station:DISL:CATA:1,2017-09-01T15:00:00Z,30.3085,-88.1395,0.0,3.87,291.9,-999.0,'1111122,1111122,1111122' 
DISL,ioos:station:DISL:CATA:1,2017-09-01T15:30:00Z,30.3085,-88.1395,0.0,4.52,291.2,-999.0,'1111122,1111122,1111122' 
DISL,ioos:station:DISL:CATA:1,2017-09-01T16:00:00Z,30.3085,-88.1395,0.0,3.45,286.0,-999.0,'1111122,1111122,1111122' 
DISL,ioos:station:DISL:CATA:1,2017-09-01T16:30:00Z,30.3085,-88.1395,0.0,3.96,279.9,-999.0,'1111122,1111122,1111122' 
DISL,ioos:station:DISL:CATA:1,2017-09-01T17:00:00Z,30.3085,-88.1395,0.0,5.37,270.9,-999.0,'1111122,1111122,1111122' 
DISL,ioos:station:DISL:CATA:1,2017-09-01T17:30:00Z,30.3085,-88.1395,0.0,5.66,246.5,-999.0,'1111122,1111122,1111122' 
DISL,ioos:station:DISL:CATA:1,2017-09-01T18:00:00Z,30.3085,-88.1395,0.0,5.8,242.0,-999.0,'1111122,1111122,1111122' 
DISL,ioos:station:DISL:CATA:1,2017-09-01T18:30:00Z,30.3085,-88.1395,0.0,5.6,251.4,-999.0,'1111122,1111122,1111122' 
DISL,ioos:station:DISL:CATA:1,2017-09-01T19:00:00Z,30.3085,-88.1395,0.0,5.87,241.1,-999.0,'1111122,1111122,1111122' 
DISL,ioos:station:DISL:CATA:1,2017-09-01T19:30:00Z,30.3085,-88.1395,0.0,5.29,242.1,-999.0,'1111122,1111122,1111122' 
DISL,ioos:station:DISL:CATA:1,2017-09-01T20:00:00Z,30.3085,-88.1395,0.0,4.84,244.2,-999.0,'1111122,1111122,1111122' 
DISL,ioos:station:DISL:CATA:1,2017-09-01T20:30:00Z,30.3085,-88.1395,0.0,5.92,251.6,-999.0,'1111122,1111122,1111122' 
DISL,ioos:station:DISL:CATA:1,2017-09-01T21:00:00Z,30.3085,-88.1395,0.0,5.87,242.0,-999.0,'1111122,1111122,1111122' 
DISL,ioos:station:DISL:CATA:1,2017-09-01T21:30:00Z,30.3085,-88.1395,0.0,6.09,247.7,-999.0,'1111122,1111122,1111122' 
DISL,ioos:station:DISL:CATA:1,2017-09-01T22:00:00Z,30.3085,-88.1395,0.0,5.13,230.4,-999.0,'1111122,1111122,1111122' 
DISL,ioos:station:DISL:CATA:1,2017-09-01T22:30:00Z,30.3085,-88.1395,0.0,5.73,221.1,-999.0,'1111122,1111122,1111122' 
DISL,ioos:station:DISL:CATA:1,2017-09-01T23:00:00Z,30.3085,-88.1395,0.0,5.38,214.8,-999.0,'1111122,1111122,1111122' 
DISL,ioos:station:DISL:CATA:1,2017-09-01T23:30:00Z,30.3085,-88.1395,0.0,5.71,211.5,-999.0,'1111122,1111122,1111122' 
DISL,ioos:station:DISL:CATA:1,2017-09-02T00:00:00Z,30.3085,-88.1395,0.0,5.98,212.1,-999.0,'1111122,1111122,1111122' 
DISL,ioos:station:DISL:CATA:1,2017-09-02T00:30:00Z,30.3085,-88.1395,0.0,6.7,217.6,-999.0,'1111122,1111122,1111122' 
DISL,ioos:station:DISL:CATA:1,2017-09-02T01:00:00Z,30.3085,-88.1395,0.0,5.57,231.4,-999.0,'1111122,1111122,1111122' 
DISL,ioos:station:DISL:CATA:1,2017-09-02T01:30:00Z,30.3085,-88.1395,0.0,5.96,244.3,-999.0,'1111122,1111122,1111122' 
DISL,ioos:station:DISL:CATA:1,2017-09-02T02:00:00Z,30.3085,-88.1395,0.0,5.83,236.1,-999.0,'1111122,1111122,1111122' 
DISL,ioos:station:DISL:CATA:1,2017-09-02T02:30:00Z,30.3085,-88.1395,0.0,5.38,239.6,-999.0,'1111122,1111122,1111122' 
DISL,ioos:station:DISL:CATA:1,2017-09-02T03:00:00Z,30.3085,-88.1395,0.0,5.3,250.8,-999.0,'1111122,1111122,1111122' 
DISL,ioos:station:DISL:CATA:1,2017-09-02T03:30:00Z,30.3085,-88.1395,0.0,5.53,224.7,-999.0,'1111122,1111122,1111122' 
DISL,ioos:station:DISL:CATA:1,2017-09-02T04:00:00Z,30.3085,-88.1395,0.0,4.53,263.1,-999.0,'1111122,1111122,1111122' 
DISL,ioos:station:DISL:CATA:1,2017-09-02T04:30:00Z,30.3085,-88.1395,0.0,2.99,325.2,-999.0,'1111122,1111122,1111122' 
DISL,ioos:station:DISL:CATA:1,2017-09-02T05:00:00Z,30.3085,-88.1395,0.0,1.85,0.319,-999.0,'1111122,1111122,1111122' 
DISL,ioos:station:DISL:CATA:1,2017-09-02T05:30:00Z,30.3085,-88.1395,0.0,0.82,32.53,-999.0,'1111122,1111122,1111122' 
DISL,ioos:station:DISL:CATA:1,2017-09-02T06:00:00Z,30.3085,-88.1395,0.0,0.61,12.55,-999.0,'1111122,1111122,1111122' 
DISL,ioos:station:DISL:CATA:1,2017-09-02T06:30:00Z,30.3085,-88.1395,0.0,0.6,13.27,-999.0,'1111122,1111122,1111122' 
DISL,ioos:station:DISL:CATA:1,2017-09-02T07:00:00Z,30.3085,-88.1395,0.0,1.75,323.7,-999.0,'1111122,1111122,1111122' 
DISL,ioos:station:DISL:CATA:1,2017-09-02T07:30:00Z,30.3085,-88.1395,0.0,0.86,353.3,-999.0,'1111122,1111122,1111122' 
DISL,ioos:station:DISL:CATA:1,2017-09-02T08:00:00Z,30.3085,-88.1395,0.0,2.47,17.3,-999.0,'1111122,1111122,1111122' 
DISL,ioos:station:DISL:CATA:1,2017-09-02T08:30:00Z,30.3085,-88.1395,0.0,2.34,36.17,-999.0,'1111122,1111122,1111122' 
DISL,ioos:station:DISL:CATA:1,2017-09-02T09:00:00Z,30.3085,-88.1395,0.0,2.34,6.963,-999.0,'1111122,1111122,1111122' 
DISL,ioos:station:DISL:CATA:1,2017-09-02T09:30:00Z,30.3085,-88.1395,0.0,1.29,16.07,-999.0,'1111122,1111122,1111122' 
DISL,ioos:station:DISL:CATA:1,2017-09-02T10:00:00Z,30.3085,-88.1395,0.0,0.82,23.67,-999.0,'1111122,1111122,1111122' 
DISL,ioos:station:DISL:CATA:1,2017-09-02T10:30:00Z,30.3085,-88.1395,0.0,2.77,25.97,-999.0,'1111122,1111122,1111122' 
DISL,ioos:station:DISL:CATA:1,2017-09-02T11:00:00Z,30.3085,-88.1395,0.0,1.62,356.4,-999.0,'1111122,1111122,1111122' 
DISL,ioos:station:DISL:CATA:1,2017-09-02T11:30:00Z,30.3085,-88.1395,0.0,1.59,29.98,-999.0,'1111122,1111122,1111122' 
DISL,ioos:station:DISL:CATA:1,2017-09-02T12:00:00Z,30.3085,-88.1395,0.0,2.53,12.46,-999.0,'1111122,1111122,1111122' 
DISL,ioos:station:DISL:CATA:1,2017-09-02T12:30:00Z,30.3085,-88.1395,0.0,2.2,18.69,-999.0,'1111122,1111122,1111122' 
DISL,ioos:station:DISL:CATA:1,2017-09-02T13:00:00Z,30.3085,-88.1395,0.0,2.39,7.717,-999.0,'1111122,1111122,1111122' 
DISL,ioos:station:DISL:CATA:1,2017-09-02T13:30:00Z,30.3085,-88.1395,0.0,2.02,45.84,-999.0,'1111122,1111122,1111122' 
DISL,ioos:station:DISL:CATA:1,2017-09-02T14:00:00Z,30.3085,-88.1395,0.0,3.35,46.09,-999.0,'1111122,1111122,1111122' 
DISL,ioos:station:DISL:CATA:1,2017-09-02T14:30:00Z,30.3085,-88.1395,0.0,3.95,44.32,-999.0,'1111122,1111122,1111122' 
DISL,ioos:station:DISL:CATA:1,2017-09-02T15:00:00Z,30.3085,-88.1395,0.0,4.36,38.85,-999.0,'1111122,1111122,1111122' 
DISL,ioos:station:DISL:CATA:1,2017-09-02T15:30:00Z,30.3085,-88.1395,0.0,3.15,56.14,-999.0,'1111122,1111122,1111122' 
DISL,ioos:station:DISL:CATA:1,2017-09-02T16:00:00Z,30.3085,-88.1395,0.0,2.91,71.59,-999.0,'1111122,1111122,1111122' 
DISL,ioos:station:DISL:CATA:1,2017-09-02T16:30:00Z,30.3085,-88.1395,0.0,2.76,90.0,-999.0,'1111122,1111122,1111122' 
DISL,ioos:station:DISL:CATA:1,2017-09-02T17:00:00Z,30.3085,-88.1395,0.0,2.41,99.5,-999.0,'1111122,1111122,1111122' 
DISL,ioos:station:DISL:CATA:1,2017-09-02T17:30:00Z,30.3085,-88.1395,0.0,2.07,112.0,-999.0,'1111122,1111122,1111122' 
DISL,ioos:station:DISL:CATA:1,2017-09-02T18:00:00Z,30.3085,-88.1395,0.0,2.11,126.7,-999.0,'1111122,1111122,1111122' 
DISL,ioos:station:DISL:CATA:1,2017-09-02T18:30:00Z,30.3085,-88.1395,0.0,1.36,167.1,-999.0,'1111122,1111122,1111122' 
DISL,ioos:station:DISL:CATA:1,2017-09-02T19:00:00Z,30.3085,-88.1395,0.0,2.19,240.4,-999.0,'1111122,1111122,1111122' 
DISL,ioos:station:DISL:CATA:1,2017-09-02T19:30:00Z,30.3085,-88.1395,0.0,2.62,239.4,-999.0,'1111122,1111122,1111122' 
DISL,ioos:station:DISL:CATA:1,2017-09-02T20:00:00Z,30.3085,-88.1395,0.0,2.25,332.8,-999.0,'1111122,1111122,1111122' 
DISL,ioos:station:DISL:CATA:1,2017-09-02T20:30:00Z,30.3085,-88.1395,0.0,1.67,258.5,-999.0,'1111122,1111122,1111122' 
DISL,ioos:station:DISL:CATA:1,2017-09-02T21:00:00Z,30.3085,-88.1395,0.0,2.02,262.0,-999.0,'1111122,1111122,1111122' 
DISL,ioos:station:DISL:CATA:1,2017-09-02T21:30:00Z,30.3085,-88.1395,0.0,1.35,295.1,-999.0,'1111122,1111122,1111122' 
DISL,ioos:station:DISL:CATA:1,2017-09-02T22:00:00Z,30.3085,-88.1395,0.0,1.64,261.5,-999.0,'1111122,1111122,1111122' 
DISL,ioos:station:DISL:CATA:1,2017-09-02T22:30:00Z,30.3085,-88.1395,0.0,1.91,268.4,-999.0,'1111122,1111122,1111122' 
DISL,ioos:station:DISL:CATA:1,2017-09-02T23:00:00Z,30.3085,-88.1395,0.0,1.77,245.0,-999.0,'1111122,1111122,1111122' 
DISL,ioos:station:DISL:CATA:1,2017-09-02T23:30:00Z,30.3085,-88.1395,0.0,1.59,263.9,-999.0,'1111122,1111122,1111122' 
DISL,ioos:station:DISL:CATA:1,2017-09-03T00:00:00Z,30.3085,-88.1395,0.0,1.31,262.2,-999.0,'1111122,1111122,1111122' 
DISL,ioos:station:DISL:CATA:1,2017-09-03T00:30:00Z,30.3085,-88.1395,0.0,2.67,287.8,-999.0,'1111122,1111122,1111122' 
DISL,ioos:station:DISL:CATA:1,2017-09-03T01:00:00Z,30.3085,-88.1395,0.0,1.96,309.6,-999.0,'1111122,1111122,1111122' 
DISL,ioos:station:DISL:CATA:1,2017-09-03T01:30:00Z,30.3085,-88.1395,0.0,1.4,2.376,-999.0,'1111122,1111122,1111122' 
DISL,ioos:station:DISL:CATA:1,2017-09-03T02:00:00Z,30.3085,-88.1395,0.0,2.23,3.391,-999.0,'1111122,1111122,1111122' 
DISL,ioos:station:DISL:CATA:1,2017-09-03T02:30:00Z,30.3085,-88.1395,0.0,2.74,337.5,-999.0,'1111122,1111122,1111122' 
DISL,ioos:station:DISL:CATA:1,2017-09-03T03:00:00Z,30.3085,-88.1395,0.0,2.4,321.9,-999.0,'1111122,1111122,1111122' 
DISL,ioos:station:DISL:CATA:1,2017-09-03T03:30:00Z,30.3085,-88.1395,0.0,3.9,355.5,-999.0,'1111122,1111122,1111122' 
DISL,ioos:station:DISL:CATA:1,2017-09-03T04:00:00Z,30.3085,-88.1395,0.0,2.51,16.21,-999.0,'1111122,1111122,1111122' 
DISL,ioos:station:DISL:CATA:1,2017-09-03T04:30:00Z,30.3085,-88.1395,0.0,3.07,26.11,-999.0,'1111122,1111122,1111122' 
DISL,ioos:station:DISL:CATA:1,2017-09-03T05:00:00Z,30.3085,-88.1395,0.0,3.25,19.09,-999.0,'1111122,1111122,1111122' 
DISL,ioos:station:DISL:CATA:1,2017-09-03T05:30:00Z,30.3085,-88.1395,0.0,5.87,44.36,-999.0,'1111122,1111122,1111122' 
DISL,ioos:station:DISL:CATA:1,2017-09-03T06:00:00Z,30.3085,-88.1395,0.0,3.99,72.48,-999.0,'1111122,1111122,1111122' 
DISL,ioos:station:DISL:CATA:1,2017-09-03T06:30:00Z,30.3085,-88.1395,0.0,3.75,60.42,-999.0,'1111122,1111122,1111122' 
DISL,ioos:station:DISL:CATA:1,2017-09-03T07:00:00Z,30.3085,-88.1395,0.0,4.41,43.68,-999.0,'1111122,1111122,1111122' 
DISL,ioos:station:DISL:CATA:1,2017-09-03T07:30:00Z,30.3085,-88.1395,0.0,2.61,5.369,-999.0,'1111122,1111122,1111122' 
DISL,ioos:station:DISL:CATA:1,2017-09-03T08:00:00Z,30.3085,-88.1395,0.0,2.12,8.11,-999.0,'1111122,1111122,1111122' 
DISL,ioos:station:DISL:CATA:1,2017-09-03T08:30:00Z,30.3085,-88.1395,0.0,2.27,1.092,-999.0,'1111122,1111122,1111122' 
DISL,ioos:station:DISL:CATA:1,2017-09-03T09:00:00Z,30.3085,-88.1395,0.0,2.5,11.19,-999.0,'1111122,1111122,1111122' 
DISL,ioos:station:DISL:CATA:1,2017-09-03T09:30:00Z,30.3085,-88.1395,0.0,2.4,14.97,-999.0,'1111122,1111122,1111122' 
DISL,ioos:station:DISL:CATA:1,2017-09-03T10:00:00Z,30.3085,-88.1395,0.0,3.23,10.52,-999.0,'1111122,1111122,1111122' 
DISL,ioos:station:DISL:CATA:1,2017-09-03T10:30:00Z,30.3085,-88.1395,0.0,4.12,68.63,-999.0,'1111122,1111122,1111122' 
DISL,ioos:station:DISL:CATA:1,2017-09-03T11:00:00Z,30.3085,-88.1395,0.0,3.85,58.76,-999.0,'1111122,1111122,1111122' 
DISL,ioos:station:DISL:CATA:1,2017-09-03T11:30:00Z,30.3085,-88.1395,0.0,4.67,45.96,-999.0,'1111122,1111122,1111122' 
DISL,ioos:station:DISL:CATA:1,2017-09-03T12:00:00Z,30.3085,-88.1395,0.0,4.26,58.29,-999.0,'1111122,1111122,1111122' 
DISL,ioos:station:DISL:CATA:1,2017-09-03T12:30:00Z,30.3085,-88.1395,0.0,4.05,60.87,-999.0,'1111122,1111122,1111122' 
DISL,ioos:station:DISL:CATA:1,2017-09-03T13:00:00Z,30.3085,-88.1395,0.0,3.68,57.49,-999.0,'1111122,1111122,1111122' 
DISL,ioos:station:DISL:CATA:1,2017-09-03T13:30:00Z,30.3085,-88.1395,0.0,3.29,58.74,-999.0,'1111122,1111122,1111122' 
DISL,ioos:station:DISL:CATA:1,2017-09-03T14:00:00Z,30.3085,-88.1395,0.0,3.45,45.18,-999.0,'1111122,1111122,1111122' 
DISL,ioos:station:DISL:CATA:1,2017-09-03T14:30:00Z,30.3085,-88.1395,0.0,3.41,54.38,-999.0,'1111122,1111122,1111122' 
DISL,ioos:station:DISL:CATA:1,2017-09-03T15:00:00Z,30.3085,-88.1395,0.0,3.87,41.35,-999.0,'1111122,1111122,1111122' 
DISL,ioos:station:DISL:CATA:1,2017-09-03T15:30:00Z,30.3085,-88.1395,0.0,3.48,49.42,-999.0,'1111122,1111122,1111122' 
DISL,ioos:station:DISL:CATA:1,2017-09-03T16:00:00Z,30.3085,-88.1395,0.0,3.03,57.13,-999.0,'1111122,1111122,1111122' 
DISL,ioos:station:DISL:CATA:1,2017-09-03T16:30:00Z,30.3085,-88.1395,0.0,3.65,53.65,-999.0,'1111122,1111122,1111122' 
DISL,ioos:station:DISL:CATA:1,2017-09-03T17:00:00Z,30.3085,-88.1395,0.0,3.97,43.34,-999.0,'1111122,1111122,1111122' 
DISL,ioos:station:DISL:CATA:1,2017-09-03T17:30:00Z,30.3085,-88.1395,0.0,3.93,54.15,-999.0,'1111122,1111122,1111122' 
DISL,ioos:station:DISL:CATA:1,2017-09-03T18:00:00Z,30.3085,-88.1395,0.0,3.93,55.88,-999.0,'1111122,1111122,1111122' 
DISL,ioos:station:DISL:CATA:1,2017-09-03T18:30:00Z,30.3085,-88.1395,0.0,4.65,57.25,-999.0,'1111122,1111122,1111122' 
DISL,ioos:station:DISL:CATA:1,2017-09-03T19:00:00Z,30.3085,-88.1395,0.0,4.3,60.54,-999.0,'1111122,1111122,1111122' 
DISL,ioos:station:DISL:CATA:1,2017-09-03T19:30:00Z,30.3085,-88.1395,0.0,3.94,71.19,-999.0,'1111122,1111122,1111122' 
DISL,ioos:station:DISL:CATA:1,2017-09-03T20:00:00Z,30.3085,-88.1395,0.0,3.47,78.33,-999.0,'1111122,1111122,1111122' 
DISL,ioos:station:DISL:CATA:1,2017-09-03T20:30:00Z,30.3085,-88.1395,0.0,3.2,89.2,-999.0,'1111122,1111122,1111122' 
DISL,ioos:station:DISL:CATA:1,2017-09-03T21:00:00Z,30.3085,-88.1395,0.0,2.54,88.9,-999.0,'1111122,1111122,1111122' 
DISL,ioos:station:DISL:CATA:1,2017-09-03T21:30:00Z,30.3085,-88.1395,0.0,0.88,151.1,-999.0,'1111122,1111122,1111122' 
DISL,ioos:station:DISL:CATA:1,2017-09-03T22:00:00Z,30.3085,-88.1395,0.0,0.76,187.1,-999.0,'1111122,1111122,1111122' 
DISL,ioos:station:DISL:CATA:1,2017-09-03T22:30:00Z,30.3085,-88.1395,0.0,1.13,221.9,-999.0,'1111122,1111122,1111122' 
DISL,ioos:station:DISL:CATA:1,2017-09-03T23:00:00Z,30.3085,-88.1395,0.0,2.06,262.8,-999.0,'1111122,1111122,1111122' 
DISL,ioos:station:DISL:CATA:1,2017-09-03T23:30:00Z,30.3085,-88.1395,0.0,2.09,258.6,-999.0,'1111122,1111122,1111122' 
DISL,ioos:station:DISL:CATA:1,2017-09-04T00:00:00Z,30.3085,-88.1395,0.0,1.78,266.3,-999.0,'1111122,1111122,1111122' 
DISL,ioos:station:DISL:CATA:1,2017-09-04T00:30:00Z,30.3085,-88.1395,0.0,1.99,274.4,-999.0,'1111122,1111122,1111122' 
DISL,ioos:station:DISL:CATA:1,2017-09-04T01:00:00Z,30.3085,-88.1395,0.0,2.39,272.0,-999.0,'1111122,1111122,1111122' 
DISL,ioos:station:DISL:CATA:1,2017-09-04T01:30:00Z,30.3085,-88.1395,0.0,2.32,263.7,-999.0,'1111122,1111122,1111122' 
DISL,ioos:station:DISL:CATA:1,2017-09-04T02:00:00Z,30.3085,-88.1395,0.0,1.76,260.9,-999.0,'1111122,1111122,1111122' 
DISL,ioos:station:DISL:CATA:1,2017-09-04T02:30:00Z,30.3085,-88.1395,0.0,1.85,259.2,-999.0,'1111122,1111122,1111122' 
DISL,ioos:station:DISL:CATA:1,2017-09-04T03:00:00Z,30.3085,-88.1395,0.0,1.86,2.985,-999.0,'1111122,1111122,1111122' 
DISL,ioos:station:DISL:CATA:1,2017-09-04T03:30:00Z,30.3085,-88.1395,0.0,1.67,1.642,-999.0,'1111122,1111122,1111122' 
DISL,ioos:station:DISL:CATA:1,2017-09-04T04:00:00Z,30.3085,-88.1395,0.0,2.25,13.56,-999.0,'1111122,1111122,1111122' 
DISL,ioos:station:DISL:CATA:1,2017-09-04T04:30:00Z,30.3085,-88.1395,0.0,1.96,55.75,-999.0,'1111122,1111122,1111122' 
DISL,ioos:station:DISL:CATA:1,2017-09-04T05:00:00Z,30.3085,-88.1395,0.0,4.22,59.8,-999.0,'1111122,1111122,1111122' 
DISL,ioos:station:DISL:CATA:1,2017-09-04T05:30:00Z,30.3085,-88.1395,0.0,2.8,56.7,-999.0,'1111122,1111122,1111122' 
DISL,ioos:station:DISL:CATA:1,2017-09-04T06:00:00Z,30.3085,-88.1395,0.0,2.58,70.5,-999.0,'1111122,1111122,1111122' 
DISL,ioos:station:DISL:CATA:1,2017-09-04T06:30:00Z,30.3085,-88.1395,0.0,2.48,106.8,-999.0,'1111122,1111122,1111122' 
DISL,ioos:station:DISL:CATA:1,2017-09-04T07:00:00Z,30.3085,-88.1395,0.0,2.17,113.1,-999.0,'1111122,1111122,1111122' 
DISL,ioos:station:DISL:CATA:1,2017-09-04T07:30:00Z,30.3085,-88.1395,0.0,2.37,108.4,-999.0,'1111122,1111122,1111122' 
DISL,ioos:station:DISL:CATA:1,2017-09-04T08:00:00Z,30.3085,-88.1395,0.0,2.41,103.4,-999.0,'1111122,1111122,1111122' 
DISL,ioos:station:DISL:CATA:1,2017-09-04T08:30:00Z,30.3085,-88.1395,0.0,1.65,104.1,-999.0,'1111122,1111122,1111122' 
DISL,ioos:station:DISL:CATA:1,2017-09-04T09:00:00Z,30.3085,-88.1395,0.0,0.86,66.7,-999.0,'1111122,1111122,1111122' 
DISL,ioos:station:DISL:CATA:1,2017-09-04T09:30:00Z,30.3085,-88.1395,0.0,1.83,28.35,-999.0,'1111122,1111122,1111122' 
DISL,ioos:station:DISL:CATA:1,2017-09-04T10:00:00Z,30.3085,-88.1395,0.0,2.3,21.81,-999.0,'1111122,1111122,1111122' 
DISL,ioos:station:DISL:CATA:1,2017-09-04T10:30:00Z,30.3085,-88.1395,0.0,2.87,16.25,-999.0,'1111122,1111122,1111122' 
DISL,ioos:station:DISL:CATA:1,2017-09-04T11:00:00Z,30.3085,-88.1395,0.0,2.65,19.57,-999.0,'1111122,1111122,1111122' 
DISL,ioos:station:DISL:CATA:1,2017-09-04T11:30:00Z,30.3085,-88.1395,0.0,3.11,16.96,-999.0,'1111122,1111122,1111122' 
DISL,ioos:station:DISL:CATA:1,2017-09-04T12:00:00Z,30.3085,-88.1395,0.0,2.95,21.44,-999.0,'1111122,1111122,1111122' 
DISL,ioos:station:DISL:CATA:1,2017-09-04T12:30:00Z,30.3085,-88.1395,0.0,2.67,26.98,-999.0,'1111122,1111122,1111122' 
DISL,ioos:station:DISL:CATA:1,2017-09-04T13:00:00Z,30.3085,-88.1395,0.0,3.2,21.84,-999.0,'1111122,1111122,1111122' 
DISL,ioos:station:DISL:CATA:1,2017-09-04T13:30:00Z,30.3085,-88.1395,0.0,3.36,27.19,-999.0,'1111122,1111122,1111122' 
DISL,ioos:station:DISL:CATA:1,2017-09-04T14:00:00Z,30.3085,-88.1395,0.0,3.73,41.59,-999.0,'1111122,1111122,1111122' 
DISL,ioos:station:DISL:CATA:1,2017-09-04T14:30:00Z,30.3085,-88.1395,0.0,4.28,41.29,-999.0,'1111122,1111122,1111122' 
DISL,ioos:station:DISL:CATA:1,2017-09-04T15:00:00Z,30.3085,-88.1395,0.0,4.23,43.22,-999.0,'1111122,1111122,1111122' 
DISL,ioos:station:DISL:CATA:1,2017-09-04T15:30:00Z,30.3085,-88.1395,0.0,3.46,49.53,-999.0,'1111122,1111122,1111122' 
DISL,ioos:station:DISL:CATA:1,2017-09-04T16:00:00Z,30.3085,-88.1395,0.0,3.29,59.55,-999.0,'1111122,1111122,1111122' 
DISL,ioos:station:DISL:CATA:1,2017-09-04T16:30:00Z,30.3085,-88.1395,0.0,3.26,70.76,-999.0,'1111122,1111122,1111122' 
DISL,ioos:station:DISL:CATA:1,2017-09-04T17:00:00Z,30.3085,-88.1395,0.0,2.78,90.1,-999.0,'1111122,1111122,1111122' 
DISL,ioos:station:DISL:CATA:1,2017-09-04T17:30:00Z,30.3085,-88.1395,0.0,2.14,90.5,-999.0,'1111122,1111122,1111122' 
DISL,ioos:station:DISL:CATA:1,2017-09-04T18:00:00Z,30.3085,-88.1395,0.0,1.83,115.9,-999.0,'1111122,1111122,1111122' 
DISL,ioos:station:DISL:CATA:1,2017-09-04T18:30:00Z,30.3085,-88.1395,0.0,1.86,131.1,-999.0,'1111122,1111122,1111122' 
DISL,ioos:station:DISL:CATA:1,2017-09-04T19:00:00Z,30.3085,-88.1395,0.0,1.56,149.8,-999.0,'1111122,1111122,1111122' 
DISL,ioos:station:DISL:CATA:1,2017-09-04T19:30:00Z,30.3085,-88.1395,0.0,1.51,150.6,-999.0,'1111122,1111122,1111122' 
DISL,ioos:station:DISL:CATA:1,2017-09-04T20:00:00Z,30.3085,-88.1395,0.0,2.39,175.8,-999.0,'1111122,1111122,1111122' 
DISL,ioos:station:DISL:CATA:1,2017-09-04T20:30:00Z,30.3085,-88.1395,0.0,3.5,203.0,-999.0,'1111122,1111122,1111122' 
DISL,ioos:station:DISL:CATA:1,2017-09-04T21:00:00Z,30.3085,-88.1395,0.0,3.18,194.3,-999.0,'1111122,1111122,1111122' 
DISL,ioos:station:DISL:CATA:1,2017-09-04T21:30:00Z,30.3085,-88.1395,0.0,2.97,214.5,-999.0,'1111122,1111122,1111122' 
DISL,ioos:station:DISL:CATA:1,2017-09-04T22:00:00Z,30.3085,-88.1395,0.0,2.51,200.3,-999.0,'1111122,1111122,1111122' 
DISL,ioos:station:DISL:CATA:1,2017-09-04T22:30:00Z,30.3085,-88.1395,0.0,2.25,223.2,-999.0,'1111122,1111122,1111122' 
DISL,ioos:station:DISL:CATA:1,2017-09-04T23:00:00Z,30.3085,-88.1395,0.0,2.18,233.0,-999.0,'1111122,1111122,1111122' 
DISL,ioos:station:DISL:CATA:1,2017-09-04T23:30:00Z,30.3085,-88.1395,0.0,2.15,213.6,-999.0,'1111122,1111122,1111122' 
DISL,ioos:station:DISL:CATA:1,2017-09-05T00:00:00Z,30.3085,-88.1395,0.0,2.2,207.3,-999.0,'1111122,1111122,1111122' 
DISL,ioos:station:DISL:CATA:1,2017-09-05T00:30:00Z,30.3085,-88.1395,0.0,1.67,191.3,-999.0,'1111122,1111122,1111122' 
DISL,ioos:station:DISL:CATA:1,2017-09-05T01:00:00Z,30.3085,-88.1395,0.0,2.24,184.7,-999.0,'1111122,1111122,1111122' 
DISL,ioos:station:DISL:CATA:1,2017-09-05T01:30:00Z,30.3085,-88.1395,0.0,2.9,200.8,-999.0,'1111122,1111122,1111122' 
DISL,ioos:station:DISL:CATA:1,2017-09-05T02:00:00Z,30.3085,-88.1395,0.0,3.11,217.7,-999.0,'1111122,1111122,1111122' 
DISL,ioos:station:DISL:CATA:1,2017-09-05T02:30:00Z,30.3085,-88.1395,0.0,2.88,228.1,-999.0,'1111122,1111122,1111122' 
DISL,ioos:station:DISL:CATA:1,2017-09-05T03:00:00Z,30.3085,-88.1395,0.0,2.64,214.3,-999.0,'1111122,1111122,1111122' 
DISL,ioos:station:DISL:CATA:1,2017-09-05T03:30:00Z,30.3085,-88.1395,0.0,3.07,208.7,-999.0,'1111122,1111122,1111122' 
DISL,ioos:station:DISL:CATA:1,2017-09-05T04:00:00Z,30.3085,-88.1395,0.0,3.27,216.9,-999.0,'1111122,1111122,1111122' 
DISL,ioos:station:DISL:CATA:1,2017-09-05T04:30:00Z,30.3085,-88.1395,0.0,3.9,213.1,-999.0,'1111122,1111122,1111122' 
DISL,ioos:station:DISL:CATA:1,2017-09-05T05:00:00Z,30.3085,-88.1395,0.0,3.24,207.3,-999.0,'1111122,1111122,1111122' 
DISL,ioos:station:DISL:CATA:1,2017-09-05T05:30:00Z,30.3085,-88.1395,0.0,3.3,225.9,-999.0,'1111122,1111122,1111122' 